• In Russia
  • List of Countries
  • For 7 days
  • Water Temperature
  • Weather Map
  • Weather Widgets
  • user-avatar
    Login

    Hourly Weather Kandahar

    Today, 22 January, Wednesday

    Time Temperature Precipitation Wind Pressure Humidity
    00:00 +5°C° 0 mm 2 mps 678 mmHg 78%
    01:00 +5°C° 0 mm 2 mps 679 mmHg 78%
    02:00 +3°C° 0 mm 3 mps 678 mmHg 79%
    03:00 +3°C° 0 mm 3 mps 678 mmHg 79%
    04:00 +3°C° 0 mm 3 mps 678 mmHg 80%
    05:00 +3°C° 0 mm 3 mps 679 mmHg 80%
    06:00 +2°C° 0 mm 3 mps 679 mmHg 79%
    07:00 +2°C° 0 mm 3 mps 680 mmHg 79%
    08:00 +4°C° 0 mm 3 mps 680 mmHg 72%
    09:00 +5°C° 0 mm 3 mps 680 mmHg 65%
    10:00 +7°C° 0 mm 3 mps 681 mmHg 58%
    11:00 +8°C° 0 mm 3 mps 680 mmHg 54%
    12:00 +9°C° 0 mm 2 mps 680 mmHg 49%
    13:00 +10°C° 0 mm 2 mps 679 mmHg 45%
    14:00 +10°C° 0 mm 2 mps 679 mmHg 44%
    15:00 +10°C° 0 mm 2 mps 679 mmHg 43%
    16:00 +11°C° 0 mm 1 mps 679 mmHg 41%
    17:00 +9°C° 0 mm 2 mps 679 mmHg 46%
    18:00 +8°C° 0 mm 2 mps 680 mmHg 51%
    19:00 +7°C° 0 mm 2 mps 680 mmHg 56%
    20:00 +7°C° 0 mm 2 mps 680 mmHg 57%
    21:00 +6°C° 0 mm 2 mps 680 mmHg 58%
    22:00 +5°C° 0 mm 3 mps 680 mmHg 59%
    23:00 +4°C° 0 mm 3 mps 680 mmHg 59%

    Tomorrow, 23 January, Thursday

    Time Temperature Precipitation Wind Pressure Humidity
    00:00 +4°C° 0 mm 3 mps 679 mmHg 59%
    01:00 +3°C° 0 mm 3 mps 679 mmHg 59%
    02:00 +3°C° 0 mm 3 mps 679 mmHg 58%
    03:00 +3°C° 0 mm 4 mps 679 mmHg 58%
    04:00 +1°C° 0 mm 4 mps 678 mmHg 57%
    05:00 +1°C° 0 mm 4 mps 678 mmHg 56%
    06:00 +1°C° 0 mm 4 mps 679 mmHg 55%
    07:00 +1°C° 0 mm 4 mps 679 mmHg 55%
    08:00 +3°C° 0 mm 4 mps 679 mmHg 50%
    09:00 +5°C° 0 mm 4 mps 679 mmHg 46%
    10:00 +6°C° 0 mm 4 mps 679 mmHg 42%
    11:00 +7°C° 0 mm 4 mps 679 mmHg 40%
    12:00 +8°C° 0 mm 4 mps 678 mmHg 39%
    13:00 +10°C° 0 mm 4 mps 678 mmHg 38%
    14:00 +10°C° 0 mm 4 mps 677 mmHg 40%
    15:00 +10°C° 0 mm 4 mps 677 mmHg 41%
    16:00 +10°C° 0 mm 4 mps 677 mmHg 43%
    17:00 +8°C° 0 mm 4 mps 677 mmHg 46%
    18:00 +7°C° 0 mm 4 mps 677 mmHg 49%
    19:00 +6°C° 0 mm 4 mps 677 mmHg 52%
    20:00 +5°C° 0 mm 4 mps 677 mmHg 53%
    21:00 +5°C° 0 mm 4 mps 677 mmHg 53%
    22:00 +3°C° 0 mm 5 mps 677 mmHg 54%
    23:00 +3°C° 0 mm 5 mps 676 mmHg 54%

    Day after tomorrow, 24 January, Friday

    Time Temperature Precipitation Wind Pressure Humidity
    00:00 +4°C° 0 mm 4 mps 676 mmHg 54%
    01:00 +3°C° 0 mm 4 mps 676 mmHg 54%
    02:00 +3°C° 0 mm 4 mps 675 mmHg 53%
    03:00 +3°C° 0 mm 4 mps 675 mmHg 52%
    04:00 +2°C° 0 mm 5 mps 674 mmHg 51%
    05:00 +2°C° 0 mm 5 mps 674 mmHg 51%
    06:00 +2°C° 0 mm 5 mps 675 mmHg 52%
    07:00 +2°C° 0 mm 5 mps 675 mmHg 52%
    08:00 +2°C° 0.5 mm 5 mps 675 mmHg 58%
    09:00 +2°C° 0.5 mm 5 mps 675 mmHg 65%
    10:00 +2°C° 0.5 mm 5 mps 675 mmHg 71%
    11:00 +3°C° 1.3 mm 4 mps 675 mmHg 77%
    12:00 +3°C° 1.3 mm 4 mps 674 mmHg 82%
    13:00 +4°C° 1.3 mm 4 mps 674 mmHg 87%
    14:00 +4°C° 0.9 mm 4 mps 674 mmHg 87%
    15:00 +4°C° 0.9 mm 4 mps 673 mmHg 86%
    16:00 +4°C° 0.9 mm 4 mps 673 mmHg 85%
    17:00 +4°C° 0.7 mm 4 mps 673 mmHg 86%
    18:00 +4°C° 0.7 mm 4 mps 674 mmHg 87%
    19:00 +4°C° 0.7 mm 4 mps 674 mmHg 88%
    20:00 +4°C° 0.6 mm 3 mps 674 mmHg 88%
    21:00 +4°C° 0.6 mm 3 mps 674 mmHg 89%
    22:00 +5°C° 0.6 mm 3 mps 674 mmHg 90%
    23:00 +5°C° 0.1 mm 3 mps 674 mmHg 90%

    25 January, Saturday

    Time Temperature Precipitation Wind Pressure Humidity
    00:00 +6°C° 0.1 mm 2 mps 674 mmHg 89%
    01:00 +6°C° 0.1 mm 2 mps 673 mmHg 89%
    02:00 +6°C° 0 mm 2 mps 673 mmHg 88%
    03:00 +6°C° 0 mm 2 mps 674 mmHg 86%
    04:00 +6°C° 0 mm 2 mps 674 mmHg 85%
    05:00 +5°C° 0 mm 3 mps 674 mmHg 84%
    06:00 +5°C° 0 mm 3 mps 674 mmHg 82%
    07:00 +5°C° 0 mm 3 mps 675 mmHg 81%
    08:00 +8°C° 0 mm 3 mps 675 mmHg 77%
    09:00 +9°C° 0 mm 3 mps 676 mmHg 72%
    10:00 +10°C° 0 mm 2 mps 676 mmHg 68%
    11:00 +12°C° 0 mm 2 mps 676 mmHg 65%
    12:00 +12°C° 0 mm 2 mps 675 mmHg 61%
    13:00 +13°C° 0 mm 1 mps 675 mmHg 58%
    14:00 +13°C° 0 mm 1 mps 675 mmHg 57%
    15:00 +14°C° 0 mm 1 mps 675 mmHg 56%
    16:00 +14°C° 0 mm 1 mps 674 mmHg 54%
    17:00 +13°C° 0 mm 2 mps 675 mmHg 59%
    18:00 +10°C° 0 mm 2 mps 675 mmHg 63%
    19:00 +9°C° 0 mm 2 mps 675 mmHg 67%
    20:00 +9°C° 0 mm 3 mps 675 mmHg 67%
    21:00 +8°C° 0 mm 3 mps 675 mmHg 67%
    22:00 +8°C° 0 mm 3 mps 675 mmHg 66%
    23:00 +7°C° 0 mm 3 mps 674 mmHg 66%

    26 January, Sunday

    Time Temperature Precipitation Wind Pressure Humidity
    00:00 +7°C° 0 mm 3 mps 674 mmHg 65%
    01:00 +5°C° 0 mm 3 mps 673 mmHg 64%
    02:00 +5°C° 0 mm 3 mps 673 mmHg 63%
    03:00 +5°C° 0 mm 3 mps 673 mmHg 62%
    04:00 +5°C° 0 mm 3 mps 673 mmHg 61%
    05:00 +4°C° 0 mm 3 mps 673 mmHg 61%
    06:00 +4°C° 0 mm 3 mps 673 mmHg 61%
    07:00 +4°C° 0 mm 3 mps 674 mmHg 61%
    08:00 +5°C° 0 mm 3 mps 674 mmHg 57%
    09:00 +8°C° 0 mm 3 mps 674 mmHg 53%
    10:00 +8°C° 0 mm 4 mps 674 mmHg 49%
    11:00 +10°C° 0 mm 3 mps 674 mmHg 49%
    12:00 +10°C° 0 mm 3 mps 673 mmHg 49%
    13:00 +11°C° 0 mm 3 mps 672 mmHg 49%
    14:00 +11°C° 0.1 mm 3 mps 672 mmHg 52%
    15:00 +10°C° 0.1 mm 3 mps 672 mmHg 56%
    16:00 +10°C° 0.1 mm 3 mps 671 mmHg 59%
    17:00 +9°C° 0 mm 3 mps 672 mmHg 61%
    18:00 +9°C° 0 mm 2 mps 672 mmHg 62%
    19:00 +8°C° 0 mm 2 mps 672 mmHg 63%
    20:00 +8°C° 0 mm 2 mps 672 mmHg 63%
    21:00 +7°C° 0 mm 2 mps 672 mmHg 63%
    22:00 +7°C° 0 mm 2 mps 673 mmHg 62%
    23:00 +7°C° 0 mm 2 mps 672 mmHg 62%

    27 January, Monday

    Time Temperature Precipitation Wind Pressure Humidity
    00:00 +7°C° 0 mm 2 mps 672 mmHg 62%
    01:00 +6°C° 0 mm 2 mps 672 mmHg 62%
    02:00 +6°C° 0 mm 2 mps 672 mmHg 64%
    03:00 +7°C° 0 mm 1 mps 672 mmHg 67%
    04:00 +6°C° 0 mm 1 mps 672 mmHg 69%
    05:00 +6°C° 0 mm 1 mps 672 mmHg 73%
    06:00 +5°C° 0 mm 1 mps 673 mmHg 78%
    07:00 +5°C° 0 mm 1 mps 673 mmHg 83%
    08:00 +6°C° 0 mm 1 mps 673 mmHg 78%
    09:00 +7°C° 0 mm 1 mps 674 mmHg 74%
    10:00 +7°C° 0 mm 1 mps 674 mmHg 69%
    11:00 +8°C° 0 mm 1 mps 674 mmHg 65%
    12:00 +8°C° 0 mm 2 mps 673 mmHg 61%
    13:00 +9°C° 0 mm 2 mps 673 mmHg 57%
    14:00 +9°C° 0 mm 3 mps 672 mmHg 56%
    15:00 +9°C° 0 mm 3 mps 672 mmHg 54%
    16:00 +9°C° 0 mm 3 mps 672 mmHg 53%
    17:00 +9°C° 0 mm 3 mps 672 mmHg 55%
    18:00 +8°C° 0 mm 3 mps 673 mmHg 58%
    19:00 +7°C° 0 mm 3 mps 673 mmHg 60%
    20:00 +7°C° 0 mm 3 mps 673 mmHg 61%
    21:00 +6°C° 0 mm 2 mps 673 mmHg 63%
    22:00 +6°C° 0 mm 2 mps 674 mmHg 64%
    23:00 +5°C° 0 mm 2 mps 674 mmHg 65%
    Show more